Powrót do katalogu

CZ-2C DEB

AktywnyPO
NORAD 40289·DEBRIS·🇨🇳 China

Wystrzelony Oct 27, 2014 z Jiuquan Satellite Launch Center

Loading…

Następne Przeloty (najbliższe 24 godziny)

TLE

ŚwieżeSource: Space-Track

Epoka: Sep 14, 2026, 01:01 UTC

1 40289U 14066D   26257.04246081  .00005663  00000-0  71203-3 0  9993
2 40289  98.4835 180.3441 0062106 223.3300 136.3018 14.81159264631420

Śledź CZ-2C DEB w czasie rzeczywistym z AllMySat

Download on the App Store